St. James, MN

5:28 PM CDT on October 22, 2019 (GMT -0500)
Saint James Municipal

Weather History for KJYG - June, 2019

Change the Weather History Date:

Thursday, June 6, 2019

  Actual Average Record
Temperature  
Mean Temperature 76 °F -  
Max Temperature 91 °F 82 °F 98 °F (2011)
Min Temperature 60 °F 56 °F 43 °F (1983)
Cooling Degree Days 10    
Growing Degree Days 26 (Base 50)    
Moisture  
Dew Point 57 °F    
Average Humidity 57    
Maximum Humidity 94    
Minimum Humidity 22    
Precipitation  
Precipitation 0.00 in - - ()
Sea Level Pressure  
Sea Level Pressure 29.87 in    
Wind  
Wind Speed 3 mph (East)    
Max Wind Speed 10 mph    
Max Gust Speed -    
Visibility 10 miles    
Events      
Averages and records for this station are not official NWS values.
T = Trace of Precipitation, MM = Missing Value Source: NWS Daily Summary

Daily Weather History Graph

Daily Weather History Graph

Search for Another Location

Airport or City:

Astronomy

Jun. 06, 2019 Rise Set
Actual Time 5:36 AM CDT 8:57 PM CDT
Civil Twilight 5:00 AM CDT 9:33 PM CDT
Nautical Twilight 4:14 AM CDT 10:20 PM CDT
Astronomical Twilight 3:16 AM CDT 11:18 PM CDT
Moon 8:46 AM CDT (6/6) No Moon Set
Length of Visible Light 16h 33m
Length of Day
15h 21m
Waxing Crescent, 14% of the Moon is Illuminated
Jun 6
Waxing Crescent
Jun 10
First Quarter
Jun 17
Full
Jun 25
Last Quarter
Jul 2
New

Hourly Weather History & Observations

Time (CDT) Temp. Heat Index Dew Point Humidity Pressure Visibility Wind Dir Wind Speed Gust Speed Precip Events Conditions
12:15 AM 69.8 °F - 60.8 °F 73% 29.86 in 10.0 mi NNE 4.6 mph - N/A   Clear
12:35 AM 69.8 °F - 60.8 °F 73% 29.86 in 10.0 mi NNE 4.6 mph - N/A   Clear
12:56 AM 69.8 °F - 60.8 °F 73% 29.86 in 10.0 mi NNE 4.6 mph - N/A   Clear
1:15 AM 68.0 °F - 60.8 °F 78% 29.86 in 10.0 mi Calm Calm - N/A   Clear
1:35 AM 66.2 °F - 60.8 °F 83% 29.86 in 10.0 mi Calm Calm - N/A   Clear
1:56 AM 66.2 °F - 60.8 °F 83% 29.86 in 10.0 mi NNE 3.5 mph - N/A   Clear
2:15 AM 66.2 °F - 60.8 °F 83% 29.86 in 10.0 mi NNE 3.5 mph - N/A   Clear
2:35 AM 64.4 °F - 60.8 °F 88% 29.86 in 10.0 mi NNE 3.5 mph - N/A   Clear
2:56 AM 66.2 °F - 60.8 °F 83% 29.86 in 10.0 mi NNE 3.5 mph - N/A   Clear
3:15 AM 64.4 °F - 60.8 °F 88% 29.86 in 10.0 mi Calm Calm - N/A   Clear
3:16 AM 64.4 °F - 60.8 °F 88% 29.86 in 10.0 mi Calm Calm - N/A   Clear
3:35 AM 64.4 °F - 60.8 °F 88% 29.86 in 10.0 mi Calm Calm - N/A   Clear
3:56 AM 64.4 °F - 60.8 °F 88% 29.86 in 10.0 mi Calm Calm - N/A   Clear
4:15 AM 62.6 °F - 59.0 °F 88% 29.86 in 10.0 mi Calm Calm - N/A   Clear
4:35 AM 62.6 °F - 59.0 °F 88% 29.87 in 10.0 mi Calm Calm - N/A   Clear
4:55 AM 60.8 °F - 59.0 °F 94% 29.87 in 10.0 mi Calm Calm - N/A   Clear
4:57 AM 60.8 °F - 59.0 °F 94% 29.87 in 10.0 mi Calm Calm - N/A   Clear
5:15 AM 60.8 °F - 59.0 °F 94% 29.88 in 10.0 mi Calm Calm - N/A   Clear
5:35 AM 60.8 °F - 59.0 °F 94% 29.88 in 10.0 mi Calm Calm - N/A   Clear
5:36 AM 60.8 °F - 59.0 °F 94% 29.88 in 10.0 mi Calm Calm - N/A   Clear
5:55 AM 60.8 °F - 59.0 °F 94% 29.88 in 10.0 mi Calm Calm - N/A   Clear
6:15 AM 62.6 °F - 59.0 °F 88% 29.89 in 10.0 mi Calm Calm - N/A   Clear
6:35 AM 64.4 °F - 60.8 °F 88% 29.89 in 10.0 mi Calm Calm - N/A   Clear
6:55 AM 66.2 °F - 60.8 °F 83% 29.89 in 10.0 mi Calm Calm - N/A   Clear
7:15 AM 69.8 °F - 62.6 °F 78% 29.90 in 10.0 mi Calm Calm - N/A   Clear
7:16 AM 69.8 °F - 62.6 °F 78% 29.90 in 10.0 mi Calm Calm - N/A   Clear
7:35 AM 69.8 °F - 62.6 °F 78% 29.90 in 10.0 mi Calm Calm - N/A   Clear
7:55 AM 71.6 °F - 64.4 °F 78% 29.90 in 10.0 mi ESE 3.5 mph - N/A   Clear
8:15 AM 71.6 °F - 64.4 °F 78% 29.90 in 10.0 mi East 3.5 mph - N/A   Clear
8:16 AM 71.6 °F - 64.4 °F 78% 29.90 in 10.0 mi Calm Calm - N/A   Clear
8:43 AM 73.4 °F - 64.4 °F 73% 29.90 in 10.0 mi ESE 3.5 mph - N/A   Clear
8:58 AM 73.4 °F - 64.4 °F 73% 29.91 in 10.0 mi SE 5.8 mph - N/A   Clear
9:15 AM 73.4 °F - 66.2 °F 78% 29.91 in 10.0 mi SSE 3.5 mph - N/A   Clear
9:16 AM 73.4 °F - 66.2 °F 78% 29.91 in 10.0 mi Calm Calm - N/A   Clear
9:44 AM 77.0 °F - 66.2 °F 69% 29.90 in 10.0 mi ESE 3.5 mph - N/A   Clear
10:00 AM 78.8 °F - 66.2 °F 65% 29.90 in 10.0 mi Calm Calm - N/A   Clear
10:15 AM 80.6 °F 82.7 °F 66.2 °F 61% 29.90 in 10.0 mi Calm Calm - N/A   Clear
10:35 AM 80.6 °F 81.8 °F 62.6 °F 54% 29.90 in 10.0 mi Calm Calm - N/A   Clear
10:46 AM 80.6 °F 81.1 °F 59.0 °F 48% 29.90 in 10.0 mi East 3.5 mph - N/A   Clear
11:01 AM 82.4 °F 82.5 °F 59.0 °F 45% 29.90 in 10.0 mi Calm Calm - N/A   Clear
11:17 AM 82.4 °F 82.5 °F 59.0 °F 45% 29.90 in 10.0 mi Calm Calm - N/A   Clear
11:35 AM 82.4 °F 82.0 °F 57.2 °F 42% 29.89 in 10.0 mi East 3.5 mph - N/A   Clear
12:03 PM 84.2 °F 83.0 °F 55.4 °F 37% 29.89 in 10.0 mi Calm Calm - N/A   Clear
12:18 PM 84.2 °F 83.0 °F 55.4 °F 37% 29.89 in 10.0 mi East 3.5 mph - N/A   Clear
12:35 PM 84.2 °F 82.8 °F 53.6 °F 35% 29.89 in 10.0 mi Calm Calm - N/A   Clear
1:04 PM 86.0 °F - 51.8 °F 31% 29.88 in 10.0 mi ESE 4.6 mph - N/A   Clear
1:20 PM 86.0 °F - 51.8 °F 31% 29.88 in 10.0 mi Calm Calm - N/A   Clear
1:35 PM 87.8 °F 85.7 °F 53.6 °F 31% 29.88 in 10.0 mi NE 3.5 mph - N/A   Clear
1:55 PM 87.8 °F - 50.0 °F 27% 29.88 in 10.0 mi Calm Calm - N/A   Clear
2:21 PM 87.8 °F - 50.0 °F 27% 29.87 in 10.0 mi Calm Calm - N/A   Clear
2:37 PM 89.6 °F - 51.8 °F 27% 29.86 in 10.0 mi NNE 5.8 mph - N/A   Clear
2:55 PM 87.8 °F - 48.2 °F 25% 29.86 in 10.0 mi East 4.6 mph - N/A   Clear
3:23 PM 89.6 °F - 46.4 °F 22% 29.86 in 10.0 mi Calm Calm - N/A   Clear
3:38 PM 89.6 °F - 46.4 °F 22% 29.86 in 10.0 mi Calm Calm - N/A   Clear
3:55 PM 89.6 °F - 51.8 °F 27% 29.85 in 10.0 mi East 4.6 mph - N/A   Clear
3:56 PM 89.6 °F - 51.8 °F 27% 29.85 in 10.0 mi East 3.5 mph - N/A   Clear
4:24 PM 89.6 °F - 51.8 °F 27% 29.85 in 10.0 mi East 5.8 mph - N/A   Clear
4:40 PM 91.4 °F - 51.8 °F 26% 29.85 in 10.0 mi ENE 3.5 mph - N/A   Clear
5:15 PM 91.4 °F - 51.8 °F 26% 29.84 in 10.0 mi ENE 4.6 mph - N/A   Clear
5:41 PM 89.6 °F - 50.0 °F 26% 29.84 in 10.0 mi Calm Calm - N/A   Clear
5:57 PM 89.6 °F 87.3 °F 53.6 °F 29% 29.84 in 10.0 mi ENE 10.4 mph - N/A   Clear
6:15 PM 91.4 °F - 51.8 °F 26% 29.84 in - ENE 6.9 mph - N/A   Clear
6:43 PM 89.6 °F - 50.0 °F 26% 29.83 in 10.0 mi ENE 4.6 mph - N/A   Clear
6:58 PM 91.4 °F - 51.8 °F 26% 29.83 in 10.0 mi ENE 5.8 mph - N/A   Clear
7:15 PM 89.6 °F - 51.8 °F 27% 29.84 in 10.0 mi ENE 5.8 mph - N/A   Clear
7:16 PM 91.4 °F - 51.8 °F 26% 29.84 in 10.0 mi ENE 6.9 mph - N/A   Clear
7:44 PM 89.6 °F - 51.8 °F 27% 29.84 in - East 3.5 mph - N/A   Clear
8:00 PM 87.8 °F 86.1 °F 55.4 °F 33% 29.84 in 10.0 mi SSE 5.8 mph - N/A   Clear
8:15 PM 87.8 °F 85.7 °F 53.6 °F 31% 29.84 in 10.0 mi SSE 4.6 mph - N/A   Clear
8:35 PM 84.2 °F 83.0 °F 55.4 °F 37% 29.84 in - SSE 4.6 mph - N/A   Clear
9:01 PM 80.6 °F 80.3 °F 53.6 °F 39% 29.84 in 10.0 mi SE 3.5 mph - N/A   Clear
9:17 PM 80.6 °F 80.3 °F 53.6 °F 39% 29.85 in 10.0 mi SE 3.5 mph - N/A   Clear
9:35 PM 77.0 °F - 57.2 °F 50% 29.85 in 7.0 mi ESE 5.8 mph - N/A   Clear
10:03 PM 75.2 °F - 57.2 °F 53% 29.86 in 10.0 mi SE 5.8 mph - N/A   Clear
10:18 PM 75.2 °F - 55.4 °F 50% 29.86 in 10.0 mi SE 5.8 mph - N/A   Clear
10:35 PM 75.2 °F - 55.4 °F 50% 29.87 in 10.0 mi SE 5.8 mph - N/A   Clear
10:36 PM 77.0 °F - 55.4 °F 47% 29.87 in 10.0 mi SE 5.8 mph - N/A   Clear
11:04 PM 75.2 °F - 55.4 °F 50% 29.87 in 10.0 mi SE 6.9 mph - N/A   Clear
11:20 PM 75.2 °F - 53.6 °F 47% 29.87 in 10.0 mi SE 6.9 mph - N/A   Clear
11:35 PM 75.2 °F - 53.6 °F 47% 29.86 in 10.0 mi SE 8.1 mph - N/A   Clear
11:55 PM 75.2 °F - 53.6 °F 47% 29.86 in 10.0 mi SE 9.2 mph - N/A   Clear